Location: Newark
(41.0400°S, 62.7845°W)
Time: 08:31:48
(UTC+00:00)

Transit 2A - Pass Details

Date: 04 December 2021
Orbit: 591 x 967 km, 66.7° (Epoch: 19 January)

Event Time Altitude Azimuth Distance (km) Brightness Sun altitude
Rises 01:33:49 0° 215° (SW) 2,865 10.7 -18.1°
Reaches altitude 10° 01:36:04 10° 219° (SW) 1,965 9.4 -18.3°
Maximum altitude 01:40:21 55° 296° (WNW) 751 6.0 -18.8°
Enters shadow 01:42:01 34° 355° (N) 1,037 6.3 -18.9°
Drops below altitude 10° 01:44:50 10° 13° (NNE) 2,052 - -19.2°
Sets 01:47:13 0° 17° (NNE) 3,005 - -19.5°
